Location: Unspecified
(54.1780°N, 0.0000°E)
Time: 21:50:50
(UTC+00:00)

Transit 2A - Pass Details

Date: 20 June 2019
Orbit: 600 x 958 km, 66.7° (Epoch: 21 October)

Event Time Altitude Azimuth Distance (km) Brightness Sun altitude
Rises 06:47:36 0° 310° (NW) 3,583 9.1 25.5°
Reaches altitude 10° 06:50:32 10° 320° (NW) 2,598 8.5 25.9°
Maximum altitude 06:55:52 32° 22° (NNE) 1,452 8.0 26.7°
Drops below altitude 10° 07:00:48 10° 85° (E) 2,391 10.4 27.4°
Sets 07:03:23 0° 95° (E) 3,257 10.5 27.8°
